| time (UTC) | temp F | wind direction | speed MPH | gust MPH | rain 1hr in | rain 24hr in | rain mn in | humidity % | barometer mb |
| 20260504160321 | 75 | 227 | 7.0 | 15.0 | 0.00 | 0.00 | 0.00 | 48 | 1008.1 |
| 20260504150745 | 72 | 190 | 7.0 | 10.0 | 0.00 | 0.00 | 0.00 | 50 | 1008.5 |
| 20260504150242 | 71 | 214 | 10.0 | 18.0 | 0.00 | 0.00 | 0.00 | 50 | 1008.6 |
| 20260504141212 | 69 | 182 | 7.0 | 13.0 | 0.00 | 0.00 | 0.00 | 53 | 1008.9 |
| 20260504140708 | 69 | 171 | 9.0 | 13.0 | 0.00 | 0.00 | 0.00 | 53 | 1008.7 |
| 20260504140203 | 68 | 208 | 4.0 | 11.0 | 0.00 | 0.00 | 0.00 | 53 | 1008.8 |
| 20260504130632 | 65 | 182 | 11.0 | 18.0 | 0.00 | 0.00 | 0.00 | 57 | 1009.0 |
| 20260504130129 | 65 | 220 | 9.0 | 14.0 | 0.00 | 0.00 | 0.00 | 57 | 1009.2 |
| 20260504110520 | 64 | 199 | 4.0 | 9.0 | 0.00 | 0.00 | 0.00 | 55 | 1009.3 |
| 20260504100436 | 65 | 149 | 5.0 | 10.0 | 0.00 | 0.00 | 0.00 | 51 | 1009.5 |
| 20260504081829 | 68 | 238 | 4.0 | 9.0 | 0.00 | 0.00 | 0.00 | 45 | 1010.3 |
| 20260504081326 | 68 | 161 | 10.0 | 14.0 | 0.00 | 0.00 | 0.00 | 45 | 1010.4 |
| 20260504080822 | 68 | 196 | 3.0 | 8.0 | 0.00 | 0.00 | 0.00 | 45 | 1010.5 |
| 20260504080319 | 68 | 209 | 8.0 | 9.0 | 0.00 | 0.00 | 0.00 | 45 | 1010.3 |
| 20260504070246 | 69 | 189 | 6.0 | 13.0 | 0.00 | 0.00 | 0.00 | 42 | 1011.1 |
| 20260504060207 | 70 | 120 | 4.0 | 11.0 | 0.00 | 0.00 | 0.00 | 40 | 1012.0 |
| 20260504050629 | 71 | 200 | 8.0 | 14.0 | 0.00 | 0.00 | 0.00 | 40 | 1012.5 |
| 20260504050127 | 70 | 165 | 6.0 | 11.0 | 0.00 | 0.00 | 0.00 | 41 | 1012.7 |
| 20260504045624 | 71 | 176 | 4.0 | 9.0 | 0.00 | 0.00 | 0.00 | 40 | 1012.7 |
| 20260504045124 | 71 | 226 | 9.0 | 13.0 | 0.00 | 0.00 | 0.00 | 40 | 1012.6 |
| 20260504044622 | 71 | 172 | 6.0 | 8.0 | 0.00 | 0.00 | 0.00 | 40 | 1012.6 |
| 20260504044118 | 71 | 193 | 6.0 | 21.0 | 0.00 | 0.00 | 0.00 | 40 | 1012.4 |
| 20260504043615 | 71 | 185 | 10.0 | 16.0 | 0.00 | 0.00 | 0.00 | 40 | 1012.6 |
| 20260504043113 | 71 | 269 | 6.0 | 14.0 | 0.00 | 0.00 | 0.00 | 40 | 1012.6 |
| 20260504042610 | 71 | 206 | 7.0 | 16.0 | 0.00 | 0.00 | 0.00 | 40 | 1012.6 |
| 20260504042107 | 71 | 208 | 6.0 | 9.0 | 0.00 | 0.00 | 0.00 | 40 | 1012.5 |
| 20260504041602 | 71 | 162 | 6.0 | 10.0 | 0.00 | 0.00 | 0.00 | 39 | 1012.5 |
| 20260504041059 | 72 | 208 | 3.0 | 15.0 | 0.00 | 0.00 | 0.00 | 39 | 1012.6 |
| 20260504040556 | 72 | 186 | 3.0 | 8.0 | 0.00 | 0.00 | 0.00 | 39 | 1012.5 |
| 20260504040053 | 72 | 177 | 5.0 | 6.0 | 0.00 | 0.00 | 0.00 | 38 | 1012.9 |
| 20260504035549 | 72 | 202 | 6.0 | 13.0 | 0.00 | 0.00 | 0.00 | 38 | 1012.8 |
| 20260504035045 | 72 | 197 | 9.0 | 14.0 | 0.00 | 0.00 | 0.00 | 38 | 1012.9 |
| 20260504034544 | 72 | 211 | 8.0 | 11.0 | 0.00 | 0.00 | 0.00 | 38 | 1012.9 |
| 20260504034035 | 72 | 153 | 5.0 | 7.0 | 0.00 | 0.00 | 0.00 | 38 | 1012.7 |
| 20260504033533 | 72 | 189 | 7.0 | 11.0 | 0.00 | 0.00 | 0.00 | 38 | 1013.0 |
| 20260504033030 | 73 | 203 | 2.0 | 16.0 | 0.00 | 0.00 | 0.00 | 37 | 1013.1 |
| 20260504032527 | 73 | 228 | 7.0 | 13.0 | 0.00 | 0.00 | 0.00 | 37 | 1013.0 |
| 20260504032024 | 73 | 206 | 5.0 | 10.0 | 0.00 | 0.00 | 0.00 | 37 | 1012.9 |
| 20260504031521 | 73 | 181 | 6.0 | 14.0 | 0.00 | 0.00 | 0.00 | 37 | 1012.8 |
| 20260504031017 | 73 | 184 | 6.0 | 9.0 | 0.00 | 0.00 | 0.00 | 37 | 1012.9 |
| 20260504030515 | 73 | 183 | 6.0 | 10.0 | 0.00 | 0.00 | 0.00 | 37 | 1013.0 |
| 20260504030010 | 73 | 219 | 4.0 | 9.0 | 0.00 | 0.00 | 0.00 | 37 | 1012.8 |
| 20260504025508 | 74 | 181 | 4.0 | 9.0 | 0.00 | 0.00 | 0.00 | 37 | 1013.0 |
| 20260504025005 | 74 | 189 | 5.0 | 9.0 | 0.00 | 0.00 | 0.00 | 36 | 1012.8 |
| 20260504024502 | 74 | 208 | 4.0 | 15.0 | 0.00 | 0.00 | 0.00 | 36 | 1012.9 |
| 20260504023959 | 74 | 188 | 8.0 | 14.0 | 0.00 | 0.00 | 0.00 | 36 | 1012.8 |
| 20260504023455 | 75 | 199 | 5.0 | 13.0 | 0.00 | 0.00 | 0.00 | 35 | 1012.8 |
| 20260504022950 | 75 | 218 | 6.0 | 10.0 | 0.00 | 0.00 | 0.00 | 35 | 1012.7 |
| 20260504022447 | 75 | 186 | 9.0 | 13.0 | 0.00 | 0.00 | 0.00 | 35 | 1012.8 |
| 20260504021944 | 75 | 274 | 5.0 | 11.0 | 0.00 | 0.00 | 0.00 | 35 | 1012.7 |
| 20260504021441 | 75 | 184 | 7.0 | 9.0 | 0.00 | 0.00 | 0.00 | 35 | 1012.7 |
| 20260504020938 | 75 | 153 | 3.0 | 13.0 | 0.00 | 0.00 | 0.00 | 34 | 1012.7 |
| 20260504020435 | 75 | 217 | 5.0 | 11.0 | 0.00 | 0.00 | 0.00 | 34 | 1012.7 |
| 20260504015931 | 75 | 210 | 2.0 | 8.0 | 0.00 | 0.00 | 0.00 | 34 | 1012.6 |
| 20260504015427 | 76 | 246 | 5.0 | 14.0 | 0.00 | 0.00 | 0.00 | 33 | 1012.7 |
| 20260504014923 | 76 | 205 | 8.0 | 10.0 | 0.00 | 0.00 | 0.00 | 33 | 1012.4 |
| 20260504014420 | 76 | 209 | 6.0 | 10.0 | 0.00 | 0.00 | 0.00 | 33 | 1012.5 |
| 20260504013916 | 76 | 221 | 6.0 | 13.0 | 0.00 | 0.00 | 0.00 | 32 | 1012.4 |
| 20260504013415 | 77 | 206 | 8.0 | 14.0 | 0.00 | 0.00 | 0.00 | 32 | 1012.3 |
| 20260504012911 | 77 | 191 | 10.0 | 13.0 | 0.00 | 0.00 | 0.00 | 32 | 1012.4 |
| 20260504012409 | 77 | 209 | 6.0 | 8.0 | 0.00 | 0.00 | 0.00 | 32 | 1012.3 |
| 20260504011906 | 77 | 160 | 10.0 | 14.0 | 0.00 | 0.00 | 0.00 | 31 | 1012.5 |
| 20260504011403 | 77 | 127 | 6.0 | 14.0 | 0.00 | 0.00 | 0.00 | 31 | 1012.3 |
| 20260504010858 | 78 | 181 | 3.0 | 17.0 | 0.00 | 0.00 | 0.00 | 30 | 1012.5 |
| 20260504010354 | 78 | 179 | 9.0 | 13.0 | 0.00 | 0.00 | 0.00 | 29 | 1012.4 |
| 20260504005845 | 78 | 160 | 6.0 | 14.0 | 0.00 | 0.00 | 0.00 | 29 | 1012.4 |
| 20260504005342 | 79 | 215 | 9.0 | 17.0 | 0.00 | 0.00 | 0.00 | 28 | 1012.3 |
| 20260504004840 | 79 | 207 | 5.0 | 13.0 | 0.00 | 0.00 | 0.00 | 28 | 1012.5 |
| 20260504004337 | 79 | 163 | 6.0 | 14.0 | 0.00 | 0.00 | 0.00 | 28 | 1012.3 |
| 20260504003833 | 79 | 187 | 9.0 | 10.0 | 0.00 | 0.00 | 0.00 | 28 | 1012.4 |
| 20260504003330 | 80 | 242 | 6.0 | 10.0 | 0.00 | 0.00 | 0.00 | 28 | 1012.4 |
| 20260504002827 | 80 | 121 | 10.0 | 13.0 | 0.00 | 0.00 | 0.00 | 27 | 1012.6 |
| 20260504002324 | 81 | 148 | 6.0 | 9.0 | 0.00 | 0.00 | 0.00 | 27 | 1012.5 |
| 20260504001822 | 81 | 168 | 7.0 | 13.0 | 0.00 | 0.00 | 0.00 | 27 | 1012.7 |
| 20260504001319 | 82 | 195 | 4.0 | 15.0 | 0.00 | 0.00 | 0.00 | 26 | 1012.6 |
| 20260504000815 | 82 | 264 | 7.0 | 14.0 | 0.00 | 0.00 | 0.00 | 26 | 1012.7 |
| 20260504000312 | 82 | 239 | 5.0 | 8.0 | 0.00 | 0.00 | 0.00 | 26 | 1012.8 |
| 20260503235810 | 82 | 203 | 10.0 | 14.0 | 0.00 | 0.00 | 0.00 | 26 | 1012.6 |
| 20260503235308 | 82 | 164 | 8.0 | 15.0 | 0.00 | 0.00 | 0.00 | 26 | 1012.7 |
| 20260503234805 | 82 | 196 | 8.0 | 14.0 | 0.00 | 0.00 | 0.00 | 25 | 1012.9 |
| 20260503234303 | 83 | 303 | 9.0 | 15.0 | 0.00 | 0.00 | 0.00 | 24 | 1012.8 |
| 20260503233800 | 83 | 249 | 10.0 | 16.0 | 0.00 | 0.00 | 0.00 | 24 | 1012.8 |
| 20260503233255 | 83 | 253 | 8.0 | 14.0 | 0.00 | 0.00 | 0.00 | 24 | 1012.7 |
| 20260503232753 | 83 | 280 | 7.0 | 11.0 | 0.00 | 0.00 | 0.00 | 25 | 1013.1 |
| 20260503232250 | 83 | 163 | 7.0 | 10.0 | 0.00 | 0.00 | 0.00 | 25 | 1012.9 |
| 20260503231748 | 83 | 183 | 6.0 | 11.0 | 0.00 | 0.00 | 0.00 | 26 | 1013.1 |
| 20260503231245 | 83 | 229 | 6.0 | 9.0 | 0.00 | 0.00 | 0.00 | 24 | 1013.1 |
| 20260503230740 | 83 | 183 | 11.0 | 14.0 | 0.00 | 0.00 | 0.00 | 24 | 1013.4 |
| 20260503230238 | 84 | 252 | 7.0 | 13.0 | 0.00 | 0.00 | 0.00 | 25 | 1013.2 |
| 20260503225736 | 84 | 176 | 9.0 | 13.0 | 0.00 | 0.00 | 0.00 | 25 | 1013.1 |
| 20260503225235 | 84 | 233 | 13.0 | 16.0 | 0.00 | 0.00 | 0.00 | 24 | 1013.1 |
| 20260503224732 | 84 | 220 | 6.0 | 15.0 | 0.00 | 0.00 | 0.00 | 24 | 1013.0 |
| 20260503224230 | 84 | 251 | 8.0 | 13.0 | 0.00 | 0.00 | 0.00 | 24 | 1013.1 |
| 20260503223728 | 84 | 185 | 7.0 | 14.0 | 0.00 | 0.00 | 0.00 | 24 | 1013.0 |
| 20260503223225 | 84 | 247 | 10.0 | 15.0 | 0.00 | 0.00 | 0.00 | 23 | 1013.0 |
| 20260503222721 | 85 | 201 | 5.0 | 16.0 | 0.00 | 0.00 | 0.00 | 24 | 1013.2 |
| 20260503222219 | 85 | 232 | 6.0 | 14.0 | 0.00 | 0.00 | 0.00 | 24 | 1013.3 |
| 20260503221717 | 84 | 205 | 7.0 | 13.0 | 0.00 | 0.00 | 0.00 | 24 | 1013.3 |
| 20260503221215 | 84 | 193 | 6.0 | 13.0 | 0.00 | 0.00 | 0.00 | 25 | 1013.3 |
| 20260503220711 | 84 | 184 | 8.0 | 14.0 | 0.00 | 0.00 | 0.00 | 24 | 1013.5 |
| 20260503220208 | 85 | 257 | 9.0 | 13.0 | 0.00 | 0.00 | 0.00 | 24 | 1013.6 |
| 20260503215705 | 85 | 179 | 6.0 | 13.0 | 0.00 | 0.00 | 0.00 | 25 | 1013.7 |
| 20260503215202 | 85 | 165 | 7.0 | 11.0 | 0.00 | 0.00 | 0.00 | 26 | 1013.4 |
| 20260503214700 | 84 | 242 | 5.0 | 13.0 | 0.00 | 0.00 | 0.00 | 26 | 1013.4 |
| 20260503214155 | 85 | 213 | 6.0 | 14.0 | 0.00 | 0.00 | 0.00 | 26 | 1013.7 |
| 20260503213649 | 85 | 190 | 5.0 | 14.0 | 0.00 | 0.00 | 0.00 | 26 | 1013.6 |
| 20260503213146 | 84 | 212 | 7.0 | 17.0 | 0.00 | 0.00 | 0.00 | 25 | 1013.7 |
| 20260503212643 | 85 | 227 | 9.0 | 16.0 | 0.00 | 0.00 | 0.00 | 25 | 1013.8 |
| 20260503212140 | 85 | 234 | 7.0 | 13.0 | 0.00 | 0.00 | 0.00 | 23 | 1014.2 |
| 20260503211638 | 85 | 231 | 4.0 | 17.0 | 0.00 | 0.00 | 0.00 | 23 | 1014.1 |
| 20260503211133 | 85 | 260 | 6.0 | 16.0 | 0.00 | 0.00 | 0.00 | 22 | 1014.3 |
| 20260503210630 | 86 | 229 | 9.0 | 18.0 | 0.00 | 0.00 | 0.00 | 22 | 1014.3 |
| 20260503210127 | 85 | 176 | 6.0 | 14.0 | 0.00 | 0.00 | 0.00 | 23 | 1014.2 |
| 20260503205622 | 85 | 162 | 8.0 | 16.0 | 0.00 | 0.00 | 0.00 | 24 | 1014.4 |
| 20260503205119 | 85 | 232 | 5.0 | 13.0 | 0.00 | 0.00 | 0.00 | 24 | 1014.4 |
| 20260503204616 | 85 | 218 | 8.0 | 15.0 | 0.00 | 0.00 | 0.00 | 23 | 1014.6 |
| 20260503204113 | 85 | 220 | 10.0 | 13.0 | 0.00 | 0.00 | 0.00 | 24 | 1014.7 |
| 20260503203610 | 84 | 202 | 3.0 | 8.0 | 0.00 | 0.00 | 0.00 | 24 | 1014.7 |
| 20260503203108 | 85 | 179 | 8.0 | 13.0 | 0.00 | 0.00 | 0.00 | 24 | 1014.9 |
| 20260503202605 | 85 | 221 | 6.0 | 11.0 | 0.00 | 0.00 | 0.00 | 23 | 1015.0 |
| 20260503202103 | 86 | 186 | 5.0 | 16.0 | 0.00 | 0.00 | 0.00 | 23 | 1015.0 |
| 20260503201600 | 85 | 180 | 4.0 | 17.0 | 0.00 | 0.00 | 0.00 | 24 | 1015.1 |
| 20260503201057 | 85 | 115 | 11.0 | 16.0 | 0.00 | 0.00 | 0.00 | 24 | 1015.0 |
| 20260503200554 | 85 | 241 | 5.0 | 10.0 | 0.00 | 0.00 | 0.00 | 24 | 1015.3 |
| 20260503200050 | 86 | 160 | 7.0 | 11.0 | 0.00 | 0.00 | 0.00 | 24 | 1015.4 |
| 20260503195547 | 84 | 198 | 4.0 | 13.0 | 0.00 | 0.00 | 0.00 | 26 | 1015.4 |
| 20260503195044 | 85 | 196 | 10.0 | 18.0 | 0.00 | 0.00 | 0.00 | 24 | 1015.7 |
| 20260503194541 | 85 | 205 | 8.0 | 13.0 | 0.00 | 0.00 | 0.00 | 23 | 1015.6 |
| 20260503194041 | 85 | 188 | 6.0 | 15.0 | 0.00 | 0.00 | 0.00 | 23 | 1015.9 |
| 20260503193538 | 86 | 162 | 12.0 | 15.0 | 0.00 | 0.00 | 0.00 | 24 | 1015.7 |
| 20260503193033 | 86 | 266 | 5.0 | 11.0 | 0.00 | 0.00 | 0.00 | 22 | 1015.9 |
| 20260503192530 | 86 | 205 | 2.0 | 8.0 | 0.00 | 0.00 | 0.00 | 22 | 1015.9 |
| 20260503192026 | 85 | 188 | 10.0 | 16.0 | 0.00 | 0.00 | 0.00 | 22 | 1015.9 |
| 20260503191523 | 85 | 179 | 4.0 | 11.0 | 0.00 | 0.00 | 0.00 | 22 | 1016.1 |
| 20260503191019 | 85 | 218 | 5.0 | 14.0 | 0.00 | 0.00 | 0.00 | 22 | 1016.4 |
| 20260503190516 | 85 | 227 | 11.0 | 16.0 | 0.00 | 0.00 | 0.00 | 21 | 1016.0 |
| 20260503190008 | 85 | 199 | 4.0 | 8.0 | 0.00 | 0.00 | 0.00 | 21 | 1016.3 |
| 20260503185504 | 85 | 93 | 5.0 | 14.0 | 0.00 | 0.00 | 0.00 | 22 | 1016.3 |
| 20260503185004 | 85 | 220 | 3.0 | 11.0 | 0.00 | 0.00 | 0.00 | 23 | 1016.2 |
| 20260503184500 | 86 | 176 | 6.0 | 10.0 | 0.00 | 0.00 | 0.00 | 21 | 1016.4 |
| 20260503183956 | 86 | 278 | 7.0 | 11.0 | 0.00 | 0.00 | 0.00 | 21 | 1016.5 |
| 20260503183453 | 85 | 158 | 6.0 | 15.0 | 0.00 | 0.00 | 0.00 | 23 | 1016.7 |
| 20260503182950 | 85 | 213 | 8.0 | 10.0 | 0.00 | 0.00 | 0.00 | 24 | 1016.6 |
| 20260503182449 | 85 | 214 | 4.0 | 9.0 | 0.00 | 0.00 | 0.00 | 25 | 1016.4 |
| 20260503181946 | 85 | 256 | 8.0 | 9.0 | 0.00 | 0.00 | 0.00 | 25 | 1016.6 |
| 20260503181443 | 84 | 179 | 6.0 | 11.0 | 0.00 | 0.00 | 0.00 | 28 | 1016.7 |
| 20260503180939 | 85 | 310 | 3.0 | 10.0 | 0.00 | 0.00 | 0.00 | 28 | 1016.7 |
| 20260503180438 | 85 | 215 | 6.0 | 10.0 | 0.00 | 0.00 | 0.00 | 28 | 1016.9 |
| 20260503175934 | 83 | 232 | 5.0 | 10.0 | 0.00 | 0.00 | 0.00 | 28 | 1016.9 |
| 20260503175432 | 83 | 241 | 11.0 | 14.0 | 0.00 | 0.00 | 0.00 | 29 | 1017.1 |
| 20260503174928 | 83 | 145 | 7.0 | 10.0 | 0.00 | 0.00 | 0.00 | 28 | 1017.0 |
| 20260503174426 | 82 | 224 | 6.0 | 9.0 | 0.00 | 0.00 | 0.00 | 30 | 1017.3 |
| 20260503173926 | 83 | 177 | 8.0 | 13.0 | 0.00 | 0.00 | 0.00 | 30 | 1017.2 |
| 20260503173423 | 83 | 179 | 6.0 | 11.0 | 0.00 | 0.00 | 0.00 | 30 | 1017.3 |
| 20260503172920 | 83 | 242 | 3.0 | 8.0 | 0.00 | 0.00 | 0.00 | 30 | 1017.7 |
| 20260503172417 | 82 | 191 | 4.0 | 10.0 | 0.00 | 0.00 | 0.00 | 33 | 1017.8 |
| 20260503171913 | 82 | 216 | 5.0 | 9.0 | 0.00 | 0.00 | 0.00 | 32 | 1017.7 |
| 20260503171410 | 81 | 174 | 7.0 | 11.0 | 0.00 | 0.00 | 0.00 | 32 | 1017.8 |
| 20260503170908 | 81 | 183 | 5.0 | 7.0 | 0.00 | 0.00 | 0.00 | 34 | 1017.8 |
| 20260503170403 | 80 | 187 | 3.0 | 9.0 | 0.00 | 0.00 | 0.00 | 35 | 1018.0 |